Back to catalog

INTELSAT 3-F3

AliveCommunicationsMEO
NORAD 3674·PAYLOAD· XX

Launched Feb 6, 1969 from Cape Canaveral Space Force Station

Loading…

Next Passes (next 24 hours)

TLE

FreshSource: Space-Track

Epoch: Sep 13, 2026, 15:55 UTC

1 03674U 69011A   26256.66329421 -.00000199  00000-0  00000-0 0  9991
2 03674   9.2755 302.9946 0179379   2.3477   1.5143  0.84931337 67456

Track INTELSAT 3-F3 in real time with AllMySat

Download on the App Store